Printer-friendly version
Follow the MPC on Twitter Follow the MPC on Facebook The MPC blog
Minor Planet Center

MPEC 2010-H03 : 2010 GO67

The following Minor Planet Electronic Circular may be linked-to from your own Web pages, but must not otherwise be redistributed electronically.

A form allowing access to any MPEC is at the bottom of this page.


Read MPEC 2010-H02 Read MPEC 2010-H04


M.P.E.C. 2010-H03                                Issued 2010 Apr. 16, 12:59 UT

     The Minor Planet Electronic Circulars contain information on unusual
         minor planets and routine data on comets.  They are published
   on behalf of Commission 20 of the International Astronomical Union by the
          Minor Planet Center, Smithsonian Astrophysical Observatory,
                          Cambridge, MA 02138, U.S.A.

             Prepared using the Tamkin Foundation Computer Network

                              MPC@CFA.HARVARD.EDU
       URL http://www.minorplanetcenter.org/iau/mpc.html  ISSN 1523-6714

                                   2010 GO67

Observations:
     K10G67O* C2010 04 15.41915 14 37 07.46 -09 38 44.1          21.1 V EH003G96
     K10G67O  C2010 04 15.42624 14 37 06.96 -09 38 07.2          20.9 V EH003G96
     K10G67O  C2010 04 15.43333 14 37 06.42 -09 37 29.4          21.3 V EH003G96
     K10G67O  C2010 04 15.44044 14 37 05.84 -09 36 52.0          21.1 V EH003G96
     K10G67O  C2010 04 15.45956 14 37 04.23 -09 35 11.5          20.0 R EH003H01
     K10G67O  C2010 04 15.46729 14 37 03.67 -09 34 30.0          20.7 R EH003H01
     K10G67O  C2010 04 15.47109 14 37 03.46 -09 34 08.0          21.4 V EH003G96
     K10G67O  C2010 04 15.47191 14 37 03.50 -09 34 04.5          20.4 V EH003G96
     K10G67O  C2010 04 15.47273 14 37 03.43 -09 33 58.8          21.3 V EH003G96
     K10G67O  C2010 04 15.47355 14 37 03.32 -09 33 54.9          20.7 V EH003G96
     K10G67O  C2010 04 15.47407 14 37 03.17 -09 33 53.6          20.3 R EH003H01
     K10G67O  C2010 04 15.48032 14 37 02.73 -09 33 20.0          20.2 R EH003H01
     K10G67O  C2010 04 16.31108 14 36 18.82 -08 10 01.5          20.7 R EH003H01
     K10G67O  C2010 04 16.31871 14 36 18.06 -08 09 09.9          20.6 R EH003H01
     K10G67O  C2010 04 16.32638 14 36 17.28 -08 08 17.5          20.9 R EH003H01
     K10G67O  C2010 04 16.33179 14 36 16.72 -08 07 40.8          20.0 R EH003H01

Observer details:
G96 Mt. Lemmon Survey.  Observer A. Boattini.  Measurers J. D. Ahern,
    E. C. Beshore, A. Boattini, G. J. Garradd, A. R. Gibbs, A. D. Grauer,
    R. E. Hill, R. A. Kowalski, S. M. Larson, R. H. McNaught.  1.5-m reflector
    + CCD.
H01 Magdalena Ridge Observatory, Socorro.  Observer W. H. Ryan.  2.4-m f/8.9
    reflector + CCD.

Orbital elements:
2010 GO67                                                Earth MOID = 0.0170 AU
Epoch 2010 July 23.0 TT = JDT 2455400.5                 MPC
M  24.53134              (2000.0)            P               Q
n   0.56542993     Peri.  128.42945     +0.85827983     +0.51220959
a   1.4483833      Node   200.81769     -0.49417058     +0.80832523
e   0.7354727      Incl.    5.09736     -0.13838775     +0.29026135
P   1.74           H   24.9           G   0.15           U   9
Residuals in seconds of arc
100415 G96  0.5-  0.3+    100415 G96  1.1-  0.3+    100416 H01  0.0   0.3+
100415 G96  0.3+  0.2-    100415 G96  0.4+  0.6-    100416 H01  0.1+  0.0
100415 G96  0.4+  0.1+    100415 G96  0.2+  0.7+    100416 H01  0.1+  0.0
100415 G96  0.1-  0.2-    100415 G96  0.5-  0.2+    100416 H01  0.1-  0.3-
100415 H01  0.2+  0.2-    100415 H01  0.1+  0.1-
100415 H01  0.3+  0.1-    100415 H01  0.2+  0.1-

Ephemeris:
2010 GO67                a,e,i = 1.45, 0.74, 5                   q = 0.3831
Date    TT    R. A. (2000) Decl.     Delta      r     Elong.  Phase     V
2010 04 14    14 38.11   -11 21.4    0.123    1.121   162.7    15.5    21.5
2010 04 15    14 37.48   -10 12.5    0.109    1.108   163.8    14.6    21.1
2010 04 16    14 36.63   -08 42.7    0.0948   1.095   164.9    13.8    20.8
2010 04 17    14 35.43   -06 41.4    0.0807   1.082   165.6    13.3    20.4
2010 04 18    14 33.70   -03 49.4    0.0667   1.069   165.7    13.4    19.9
2010 04 19    14 31.04   +00 31.7    0.0531   1.055   164.0    15.2    19.5
2010 04 20    14 26.54   +07 47.0    0.0400   1.042   158.9    20.4    19.0
2010 04 21    14 17.41   +21 29.9    0.0282   1.028   146.3    32.8    18.6
2010 04 22    13 49.47   +49 34.0    0.0200   1.015   118.4    60.6    18.6
2010 04 23    07 45.20   +81 00.3    0.0204   1.001    77.1   101.7    20.2
2010 04 24    03 33.19   +59 47.5    0.0290   0.987    49.8   128.9    22.8

Sonia Keys                   (C) Copyright 2010 MPC           M.P.E.C. 2010-H03

Read MPEC 2010-H02 Read MPEC 2010-H04


MPEC number:

Enter an MPEC number in one of the following forms:

  • 1997-B01 (the full form)
  • J97B01 (the packed version of the full form)
  • B01 (the abbreviated form)

Valid HTML 4.01!